"2010-08-14 00:00:00",69421,7.304,143.7,2.913,0.337,21.88,110.2424,25.52,26.44,14.39,0,111.3,13.1,26.36,105.7
"2010-08-14 00:00:30",69422,6.136,144.4,3.915,0.298,21.76,110.2484,25.53,26.46,14.37,0,111.3,13.1,26.37,106.4
"2010-08-14 00:01:00",69423,5.933,136.8,2.553,0.343,21.69,110.2545,25.55,26.45,14.27,0,111.3,13.1,26.39,98.8
"2010-08-14 00:01:30",69424,6.653,133.6,1.609,0.322,21.7,110.2534,25.55,26.46,14.17,0,111.3,13.1,26.39,95.6
"2010-08-14 00:02:00",69425,7.239,138.3,3.512,0.262,21.76,110.2479,25.53,26.46,14.22,0,111.3,13.1,26.37,100.3
"2010-08-14 00:02:30",69426,7.222,144.5,2.415,0.211,21.84,110.2487,25.53,26.46,14.31,0,111.3,13.1,26.37,106.5
"2010-08-14 00:03:00",69427,8.11,147.4,1.835,0.368,21.89,110.2486,25.53,26.46,14.32,0,111.3,13.1,26.37,109.4
"2010-08-14 00:03:30",69428,7.918,148.2,2.277,0.543,21.93,110.2527,25.54,26.47,14.46,0,111.3,13.1,26.38,110.2
"2010-08-14 00:04:00",69429,7.973,146.3,4.231,0.439,21.91,110.2617,25.57,26.46,14.41,0,111.3,13.1,26.41,108.3
"2010-08-14 00:04:30",69430,8.35,146.9,2.656,0.327,21.93,110.2686,25.58,26.46,14.41,0,111.3,13.1,26.43,108.9
"2010-08-14 00:05:00",69431,7.605,152,1.797,0.416,21.93,110.2721,25.59,26.47,14.41,0,111.3,13.09,26.43,114.0
"2010-08-14 00:05:30",69432,7.569,147.9,3.398,0.301,21.88,110.2725,25.59,26.48,14.38,0,111.3,13.09,26.44,109.9
"2010-08-14 00:06:00",69433,7.418,152.9,2.183,0.172,21.89,110.2746,25.6,26.48,14.43,0,111.3,13.09,26.44,114.9
"2010-08-14 00:06:30",69434,6.709,152.1,4.197,0.584,21.89,110.2777,25.61,26.47,14.48,0,111.2,13.09,26.45,114.1
"2010-08-14 00:07:00",69435,6.457,147,4.124,0.329,21.82,110.2805,25.62,26.48,14.43,0,111.3,13.09,26.46,109.0
"2010-08-14 00:07:30",69436,7.733,152.5,3.447,0.417,21.98,110.2774,25.61,26.5,14.55,0,111.3,13.09,26.45,114.5
"2010-08-14 00:08:00",69437,7.52,148.5,1.724,0.285,21.92,110.2755,25.6,26.5,14.56,0,111.3,13.09,26.44,110.5
"2010-08-14 00:08:30",69438,7.133,147.3,2.781,0.281,21.85,110.278,25.61,26.5,14.46,0,111.3,13.09,26.45,109.3
"2010-08-14 00:09:00",69439,7.327,150.5,3.085,0.175,21.88,110.2796,25.61,26.49,14.46,0,111.3,13.09,26.45,112.5
"2010-08-14 00:09:30",69440,6.385,147.2,5.083,0.607,21.84,110.2799,25.61,26.49,14.45,0,111.3,13.09,26.46,109.2
"2010-08-14 00:10:00",69441,5.862,144.7,2.752,0.38,21.77,110.2811,25.62,26.49,14.45,0,111.3,13.1,26.46,106.7
"2010-08-14 00:10:30",69442,6.684,145.8,3.148,0.36,21.88,110.2836,25.62,26.5,14.53,0,111.2,13.1,26.46,107.8
"2010-08-14 00:11:00",69443,7.005,147.5,2.304,0.256,21.96,110.279,25.61,26.48,14.66,0,111.2,13.1,26.45,109.5
"2010-08-14 00:11:30",69444,7.288,149.3,3.707,0.463,21.98,110.2827,25.62,26.48,14.62,0,111.3,13.1,26.46,111.3
"2010-08-14 00:12:00",69445,7.154,150.5,3.362,0.282,21.95,110.2855,25.63,26.48,14.63,0,111.3,13.1,26.47,112.5
"2010-08-14 00:12:30",69446,7.283,149.4,1.821,0.135,21.84,110.2854,25.63,26.5,14.55,0,111.3,13.1,26.47,111.4
"2010-08-14 00:13:00",69447,6.968,149.3,1.77,0.103,21.88,110.2834,25.62,26.5,14.51,0,111.2,13.1,26.46,111.3
"2010-08-14 00:13:30",69448,7.411,149.3,3.231,0.292,21.88,110.282,25.62,26.49,14.56,0,111.3,13.1,26.46,111.3
"2010-08-14 00:14:00",69449,7.733,146.2,1.702,0.22,21.89,110.2741,25.6,26.49,14.51,0,111.2,13.1,26.44,108.2
"2010-08-14 00:14:30",69450,7.938,147.5,0.893,0.15,21.92,110.2721,25.59,26.47,14.5,0,111.2,13.1,26.43,109.5
"2010-08-14 00:15:00",69451,7.384,146.4,1.803,0.326,21.9,110.269,25.59,26.47,14.52,0,111.3,13.1,26.43,108.4
"2010-08-14 00:15:30",69452,7.067,146.5,2.052,0.22,21.9,110.273,25.6,26.47,14.5,0,111.3,13.1,26.44,108.5
"2010-08-14 00:16:00",69453,6.969,144.5,2.067,0.251,21.85,110.2735,25.6,26.47,14.53,0,111.2,13.1,26.44,106.5
"2010-08-14 00:16:30",69454,6.968,151.7,2.79,0.336,21.9,110.2725,25.59,26.48,14.52,0,111.2,13.1,26.44,113.7
"2010-08-14 00:17:00",69455,6.65,150.1,1.721,0.361,21.87,110.2656,25.58,26.49,14.6,0,111.2,13.1,26.42,112.1
"2010-08-14 00:17:30",69456,7.801,149.4,1.189,0.46,21.91,110.2693,25.59,26.46,14.53,0,111.2,13.1,26.43,111.4
"2010-08-14 00:18:00",69457,6.855,150.8,1.221,0.26,21.89,110.2721,25.59,26.47,14.51,0,111.2,13.1,26.43,112.8
"2010-08-14 00:18:30",69458,7.124,151.9,2.761,0.372,21.89,110.2694,25.59,26.47,14.68,0,111.2,13.1,26.43,113.9
"2010-08-14 00:19:00",69459,6.666,155.8,1.978,0.389,21.89,110.267,25.58,26.47,14.73,0,111.2,13.1,26.42,117.8
"2010-08-14 00:19:30",69460,7.111,158.6,2.847,0.418,21.9,110.2664,25.58,26.48,14.62,0,111.2,13.1,26.42,120.6
"2010-08-14 00:20:00",69461,6.76,161.6,2.875,0.472,22.03,110.2629,25.57,26.46,14.86,0,111.2,13.1,26.41,123.6
"2010-08-14 00:20:30",69462,7.048,155.3,2.362,0.338,21.96,110.2607,25.56,26.46,14.97,0,111.2,13.1,26.41,117.3
"2010-08-14 00:21:00",69463,6.719,154.4,1.896,0.387,21.87,110.2629,25.57,26.45,14.95,0,111.2,13.1,26.41,116.4
"2010-08-14 00:21:30",69464,6.223,148.6,4.616,0.445,21.86,110.2611,25.57,26.46,15.01,0,111.2,13.1,26.41,110.6
"2010-08-14 00:22:00",69465,6.906,153.7,2.808,0.489,21.95,110.2617,25.57,26.46,15.07,0,111.2,13.1,26.41,115.7
"2010-08-14 00:22:30",69466,6.401,156.4,2.652,0.258,22.07,110.2614,25.57,26.45,15.22,0,111.2,13.1,26.41,118.4
"2010-08-14 00:23:00",69467,5.936,148,3.226,0.238,22.02,110.2617,25.57,26.44,15.37,0,111.2,13.09,26.41,110.0
"2010-08-14 00:23:30",69468,6.686,155,3.145,0.615,22.01,110.262,25.57,26.43,15.34,0,111.2,13.09,26.41,117.0
"2010-08-14 00:24:00",69469,6.245,153.6,4.554,0.253,21.88,110.2617,25.57,26.43,15.21,0,111.2,13.09,26.41,115.6
"2010-08-14 00:24:30",69470,6.189,139.1,4.312,0.316,21.89,110.2544,25.55,26.4,15.23,0,111.2,13.09,26.39,101.1
"2010-08-14 00:25:00",69471,6.271,143.2,1.948,0.236,21.89,110.2367,25.5,26.4,15.33,0,111.2,13.09,26.34,105.2
"2010-08-14 00:25:30",69472,6.384,138.1,3.33,0.364,21.96,110.2351,25.5,26.4,15.45,0,111.2,13.09,26.34,100.1
"2010-08-14 00:26:00",69473,7.23,136.9,4.238,0.478,21.93,110.2345,25.5,26.38,15.33,0,111.2,13.09,26.34,98.9
"2010-08-14 00:26:30",69474,7.786,142.1,2.4,0.219,21.93,110.2306,25.49,26.38,14.99,0,111.2,13.09,26.33,104.1
"2010-08-14 00:27:00",69475,7.222,141,1.72,0.301,21.9,110.2295,25.48,26.38,14.89,0,111.2,13.1,26.33,103.0
"2010-08-14 00:27:30",69476,7.237,141.4,1.438,0.183,21.92,110.2299,25.49,26.38,14.94,0,111.2,13.1,26.33,103.4
"2010-08-14 00:28:00",69477,7.157,144.1,2.591,0.419,21.94,110.2295,25.48,26.36,14.99,0,111.2,13.11,26.33,106.1
"2010-08-14 00:28:30",69478,7.442,147.8,4.509,0.412,22.02,110.2289,25.48,26.36,15.42,0,111.2,13.11,26.32,109.8
"2010-08-14 00:29:00",69479,8.05,149.1,2.645,0.199,22,110.2289,25.48,26.36,15.57,0,111.2,13.11,26.32,111.1
"2010-08-14 00:29:30",69480,7.897,147.9,2.809,0.32,22.05,110.2299,25.49,26.37,15.64,0,111.2,13.1,26.33,109.9
"2010-08-14 00:30:00",69481,7.586,146.3,2.384,0.29,21.97,110.2302,25.49,26.37,15.4,0,111.2,13.11,26.33,108.3
"2010-08-14 00:30:30",69482,6.665,145.4,2.897,0.373,22.06,110.2302,25.49,26.37,15.66,0,111.2,13.11,26.33,107.4
"2010-08-14 00:31:00",69483,7.085,144,1.916,0.255,21.95,110.2302,25.49,26.37,15.43,0,111.2,13.11,26.33,106.0
"2010-08-14 00:31:30",69484,6.829,146.3,2.134,0.258,21.97,110.2314,25.49,26.37,15.39,0,111.2,13.11,26.33,108.3
"2010-08-14 00:32:00",69485,7.345,147.3,1.964,0.272,21.98,110.2305,25.49,26.37,15.46,0,111.2,13.1,26.33,109.3
"2010-08-14 00:32:30",69486,7.137,148.1,1.776,0.149,21.98,110.2311,25.49,26.36,15.57,0,111.2,13.1,26.33,110.1
"2010-08-14 00:33:00",69487,7.1,148.2,1.604,0.284,21.97,110.2305,25.49,26.36,15.53,0,111.2,13.1,26.33,110.2
"2010-08-14 00:33:30",69488,7.151,149.2,1.505,0.323,21.97,110.2326,25.49,26.37,15.54,0,111.2,13.1,26.33,111.2
"2010-08-14 00:34:00",69489,6.676,156.5,2.073,0.358,21.99,110.2329,25.49,26.37,15.63,0,111.2,13.1,26.33,118.5
"2010-08-14 00:34:30",69490,6.662,154.1,2.345,0.374,21.95,110.2333,25.49,26.35,15.7,0,111.2,13.1,26.33,116.1
"2010-08-14 00:35:00",69491,6.784,151.2,1.84,0.309,21.96,110.2342,25.5,26.36,15.71,0,111.2,13.1,26.34,113.2
"2010-08-14 00:35:30",69492,6.853,153,2.723,0.152,21.99,110.2354,25.5,26.36,15.7,0,111.2,13.1,26.34,115.0
"2010-08-14 00:36:00",69493,7.766,151.7,2.226,0.349,21.97,110.2357,25.5,26.35,15.61,0,111.2,13.1,26.34,113.7
"2010-08-14 00:36:30",69494,7.672,147.7,0.983,0.162,21.93,110.236,25.5,26.36,15.49,0,111.2,13.1,26.34,109.7
"2010-08-14 00:37:00",69495,7.518,152.9,2.781,0.159,22.01,110.2367,25.5,26.36,15.54,0,111.2,13.1,26.34,114.9
"2010-08-14 00:37:30",69496,7.369,154.3,1.937,0.148,22.05,110.2373,25.5,26.36,15.63,0,111.2,13.1,26.35,116.3
"2010-08-14 00:38:00",69497,6.801,151.9,3.605,0.231,21.98,110.2367,25.5,26.36,15.71,0,111.2,13.1,26.34,113.9
"2010-08-14 00:38:30",69498,6.94,152.9,2.65,0.261,22,110.2382,25.51,26.35,15.73,0,111.2,13.1,26.35,114.9
"2010-08-14 00:39:00",69499,7.347,155.1,2.198,0.149,22.02,110.2382,25.51,26.35,15.77,0,111.2,13.1,26.35,117.1
"2010-08-14 00:39:30",69500,7.159,152.9,2.852,0.191,22.02,110.2376,25.51,26.36,15.77,0,111.2,13.1,26.35,114.9
"2010-08-14 00:40:00",69501,6.528,144.9,2.295,0.173,21.95,110.2382,25.51,26.36,15.81,0,111.2,13.1,26.35,106.9
"2010-08-14 00:40:30",69502,6.372,147.4,2.01,0.15,22.01,110.2359,25.5,26.34,15.94,0,111.2,13.1,26.34,109.4
"2010-08-14 00:41:00",69503,6.316,147.6,2.386,0.336,21.98,110.2279,25.48,26.36,15.89,0,111.2,13.1,26.32,109.6
"2010-08-14 00:41:30",69504,6.262,149.3,2.345,0.244,22.01,110.222,25.46,26.33,15.92,0,111.2,13.09,26.31,111.3
"2010-08-14 00:42:00",69505,6.502,145.9,2.632,0.439,21.99,110.2172,25.45,26.34,15.9,0,111.2,13.1,26.29,107.9
"2010-08-14 00:42:30",69506,6.463,145.6,1.81,0.311,22,110.2138,25.44,26.34,15.95,0,111.2,13.1,26.28,107.6
"2010-08-14 00:43:00",69507,6.307,150.9,3.364,0.194,22.04,110.2135,25.44,26.33,15.97,0,111.2,13.1,26.28,112.9
"2010-08-14 00:43:30",69508,5.932,150.5,2.592,0.244,21.99,110.2128,25.44,26.31,16.09,0,111.2,13.1,26.28,112.5
"2010-08-14 00:44:00",69509,5.825,142.5,5.268,0.348,21.91,110.2094,25.43,26.33,15.92,0,111.2,13.1,26.27,104.5
"2010-08-14 00:44:30",69510,6.348,145,4.156,0.33,21.94,110.2055,25.42,26.31,16.1,0,111.2,13.1,26.26,107.0
"2010-08-14 00:45:00",69511,6.278,146.5,4.082,0.455,21.95,110.2055,25.42,26.32,16.08,0,111.2,13.1,26.26,108.5
"2010-08-14 00:45:30",69512,6.873,145.3,1.728,0.261,21.96,110.2055,25.42,26.29,16.02,0,111.2,13.1,26.26,107.3
"2010-08-14 00:46:00",69513,7.264,147,3.361,0.251,22.03,110.2055,25.42,26.3,16.09,0,111.2,13.1,26.26,109.0
"2010-08-14 00:46:30",69514,7.404,145.4,2.298,0.445,22.05,110.2055,25.42,26.28,16.27,0,111.2,13.1,26.26,107.4
"2010-08-14 00:47:00",69515,7.517,147.9,2.46,0.187,22.07,110.2055,25.42,26.29,16.12,0,111.2,13.1,26.26,109.9
"2010-08-14 00:47:30",69516,7.372,151.6,2.213,0.147,22.09,110.2051,25.42,26.28,16.09,0,111.2,13.1,26.26,113.6
"2010-08-14 00:48:00",69517,7.515,152.1,1.698,0.251,22.09,110.2055,25.42,26.28,16.1,0,111.2,13.1,26.26,114.1
"2010-08-14 00:48:30",69518,7.571,148.3,1.139,0.178,22.06,110.2055,25.42,26.28,16.13,0,111.2,13.1,26.26,110.3
"2010-08-14 00:49:00",69519,7.328,148.6,1.692,0.196,22.08,110.2055,25.42,26.28,16.07,0,111.2,13.1,26.26,110.6
"2010-08-14 00:49:30",69520,7.586,149.4,2.248,0.241,22.1,110.2055,25.42,26.27,16.14,0,111.2,13.1,26.26,111.4
"2010-08-14 00:50:00",69521,7.503,154.2,0.831,0.206,22.17,110.2055,25.42,26.27,16.37,0,111.2,13.1,26.26,116.2
"2010-08-14 00:50:30",69522,7.354,152.9,2.102,0.135,22.13,110.2055,25.42,26.28,16.55,0,111.2,13.1,26.26,114.9
"2010-08-14 00:51:00",69523,7.138,153,0.894,0.19,22.11,110.2055,25.42,26.28,16.51,0,111.2,13.1,26.26,115.0
"2010-08-14 00:51:30",69524,7.012,151,1.255,0.144,22.1,110.2055,25.42,26.28,16.43,0,111.2,13.1,26.26,113.0
"2010-08-14 00:52:00",69525,7.059,148,1.692,0.232,22.06,110.2055,25.42,26.27,16.36,0,111.2,13.1,26.26,110.0
"2010-08-14 00:52:30",69526,6.699,149,2.793,0.241,22.06,110.2049,25.42,26.28,16.34,0,111.2,13.11,26.26,111.0
"2010-08-14 00:53:00",69527,6.914,147.6,2.76,0.18,22.07,110.2018,25.41,26.27,16.47,0,111.2,13.11,26.25,109.6
"2010-08-14 00:53:30",69528,6.866,147,0.99,0.292,22.08,110.1993,25.41,26.26,16.51,0,111.2,13.11,26.25,109.0
"2010-08-14 00:54:00",69529,6.807,147.4,2.142,0.246,22.09,110.1965,25.4,26.27,16.62,0,111.2,13.11,26.24,109.4
"2010-08-14 00:54:30",69530,6.566,144.7,3.307,0.313,22.04,110.1864,25.37,26.27,16.69,0,111.2,13.11,26.21,106.7
"2010-08-14 00:55:00",69531,7.204,150.7,1.199,0.164,22.1,110.1827,25.36,26.27,16.69,0,111.2,13.11,26.20,112.7
"2010-08-14 00:55:30",69532,7.509,151,1.476,0.153,22.15,110.181,25.36,26.27,16.8,0,111.2,13.11,26.20,113.0
"2010-08-14 00:56:00",69533,7.544,149.8,2.646,0.161,22.15,110.1802,25.36,26.27,16.84,0,111.2,13.11,26.20,111.8
"2010-08-14 00:56:30",69534,7.278,151.4,2.025,0.242,22.16,110.1802,25.36,26.26,16.92,0,111.2,13.1,26.20,113.4
"2010-08-14 00:57:00",69535,6.88,156,2.354,0.163,22.21,110.1794,25.36,26.26,16.91,0,111.2,13.11,26.20,118.0
"2010-08-14 00:57:30",69536,6.535,153.1,1.927,0.252,22.15,110.1774,25.35,26.26,16.89,0,111.2,13.1,26.19,115.1
"2010-08-14 00:58:00",69537,6.699,150.3,2.112,0.329,22.14,110.1754,25.35,26.25,17,0,111.2,13.1,26.19,112.3
"2010-08-14 00:58:30",69538,7.068,156.5,3.088,0.264,22.2,110.1718,25.34,26.26,16.98,0,111.2,13.1,26.18,118.5
"2010-08-14 00:59:00",69539,7.179,150.2,2.625,0.225,22.17,110.1718,25.34,26.25,16.96,0,111.2,13.1,26.18,112.2
"2010-08-14 00:59:30",69540,7.188,148.6,1.268,0.138,22.17,110.1718,25.34,26.24,16.82,0,111.2,13.1,26.18,110.6
"2010-08-14 01:00:00",69541,7.347,150.8,4.107,0.291,22.17,110.1718,25.34,26.24,16.86,0,111.2,13.1,26.18,112.8
"2010-08-14 01:00:30",69542,7.293,148.6,1.69,0.176,22.15,110.1718,25.34,26.25,16.89,0,111.2,13.1,26.18,110.6
"2010-08-14 01:01:00",69543,7.129,148,3.287,0.185,22.17,110.1718,25.34,26.23,16.8,0,111.2,13.1,26.18,110.0
"2010-08-14 01:01:30",69544,6.629,150,1.907,0.228,22.15,110.1718,25.34,26.23,16.77,0,111.2,13.11,26.18,112.0
"2010-08-14 01:02:00",69545,6.849,154,2.346,0.207,22.17,110.1718,25.34,26.22,17.05,0,111.2,13.11,26.18,116.0
"2010-08-14 01:02:30",69546,7.243,148.5,2.573,0.235,22.16,110.1718,25.34,26.22,17.08,0,111.2,13.11,26.18,110.5
"2010-08-14 01:03:00",69547,7.581,151.5,2.294,0.346,22.18,110.1704,25.33,26.22,16.9,0,111.2,13.11,26.17,113.5
"2010-08-14 01:03:30",69548,7.85,150.8,1.98,0.23,22.18,110.1667,25.32,26.2,16.58,0,111.2,13.11,26.16,112.8
"2010-08-14 01:04:00",69549,8.16,150.6,2.448,0.334,22.2,110.1662,25.32,26.22,16.87,0,111.2,13.11,26.16,112.6
"2010-08-14 01:04:30",69550,7.627,154.7,2.681,0.148,22.24,110.1586,25.3,26.21,16.88,0,111.2,13.11,26.14,116.7
"2010-08-14 01:05:00",69551,7.646,154.6,2.304,0.234,22.23,110.158,25.3,26.21,16.91,0,111.2,13.11,26.14,116.6
"2010-08-14 01:05:30",69552,7.961,151.4,0.98,0.167,22.19,110.1572,25.3,26.2,16.9,0,111.2,13.11,26.14,113.4
"2010-08-14 01:06:00",69553,7.657,151.4,0.796,0.144,22.24,110.153,25.29,26.21,16.86,0,111.2,13.11,26.13,113.4
"2010-08-14 01:06:30",69554,7.329,152.9,1.476,0.146,22.22,110.1533,25.29,26.21,16.86,0,111.2,13.11,26.13,114.9
"2010-08-14 01:07:00",69555,7.573,154.7,1.05,0.157,22.22,110.1491,25.28,26.2,16.83,0,111.2,13.11,26.12,116.7
"2010-08-14 01:07:30",69556,7.393,152.7,1.633,0.153,22.19,110.1508,25.28,26.2,17.04,0,111.2,13.11,26.12,114.7
"2010-08-14 01:08:00",69557,7.067,153.6,2.079,0.146,22.14,110.148,25.27,26.2,17.09,0,111.2,13.11,26.11,115.6
"2010-08-14 01:08:30",69558,6.974,152.9,1.78,0.186,22.22,110.1472,25.27,26.2,17.14,0,111.2,13.11,26.11,114.9
"2010-08-14 01:09:00",69559,7.004,154.2,1.516,0.142,22.22,110.147,25.27,26.2,17.11,0,111.2,13.11,26.11,116.2
"2010-08-14 01:09:30",69560,7.324,156.1,1.186,0.087,22.3,110.1476,25.27,26.19,17.12,0,111.2,13.11,26.11,118.1
"2010-08-14 01:10:00",69561,7.375,157.2,0.988,0.077,22.36,110.149,25.28,26.19,17.78,0,111.2,13.11,26.12,119.2
"2010-08-14 01:10:30",69562,7.43,156.6,1.105,0.088,22.33,110.1487,25.28,26.19,17.84,0,111.2,13.11,26.12,118.6
"2010-08-14 01:11:00",69563,7.605,156.5,0.593,0.197,22.31,110.1489,25.28,26.21,17.87,0,111.2,13.11,26.12,118.5
"2010-08-14 01:11:30",69564,7.444,158.9,1.625,0.144,22.35,110.1489,25.28,26.19,18.27,0,111.2,13.11,26.12,120.9
"2010-08-14 01:12:00",69565,7.476,157.3,1.153,0.12,22.36,110.1521,25.29,26.2,18.33,0,111.2,13.11,26.13,119.3
"2010-08-14 01:12:30",69566,7.103,155.5,1.228,0.186,22.29,110.1518,25.28,26.2,18.19,0,111.2,13.11,26.12,117.5
"2010-08-14 01:13:00",69567,7.445,155.8,1.061,0.18,22.27,110.1504,25.28,26.2,17.86,0,111.2,13.11,26.12,117.8
"2010-08-14 01:13:30",69568,7.335,155.2,1.499,0.165,22.29,110.15,25.28,26.2,18.15,0,111.2,13.11,26.12,117.2
"2010-08-14 01:14:00",69569,7.655,157.6,0.842,0.168,22.31,110.1482,25.28,26.2,17.99,0,111.2,13.11,26.12,119.6
"2010-08-14 01:14:30",69570,7.59,154.9,1.084,0.161,22.27,110.1455,25.27,26.18,17.83,0,111.2,13.11,26.11,116.9
"2010-08-14 01:15:00",69571,7.377,153.7,1.077,0.212,22.25,110.1505,25.28,26.19,17.56,0,111.2,13.11,26.12,115.7
"2010-08-14 01:15:30",69572,7.309,151.6,1.827,0.187,22.27,110.1526,25.29,26.18,17.47,0,111.2,13.11,26.13,113.6
"2010-08-14 01:16:00",69573,7.27,154.5,1.94,0.257,22.26,110.1545,25.29,26.17,17.58,0,111.2,13.11,26.13,116.5
"2010-08-14 01:16:30",69574,7.817,152.2,1.795,0.094,22.29,110.1554,25.29,26.18,17.91,0,111.2,13.11,26.13,114.2
"2010-08-14 01:17:00",69575,7.737,152.1,2.663,0.145,22.3,110.1561,25.3,26.18,17.81,0,111.2,13.11,26.14,114.1
"2010-08-14 01:17:30",69576,7.8,151.3,0.952,0.122,22.28,110.147,25.27,26.16,17.75,0,111.2,13.11,26.11,113.3
"2010-08-14 01:18:00",69577,8.45,154.2,0.78,0.109,22.33,110.1478,25.27,26.16,18.08,0,111.2,13.11,26.11,116.2
"2010-08-14 01:18:30",69578,8.29,153.2,2.443,0.1,22.37,110.1488,25.28,26.16,18.18,0,111.2,13.11,26.12,115.2
"2010-08-14 01:19:00",69579,8.09,150.8,0.806,0.134,22.33,110.1483,25.28,26.17,18.03,0,111.2,13.11,26.12,112.8
"2010-08-14 01:19:30",69580,8.02,150.8,1.097,0.174,22.32,110.149,25.28,26.16,17.94,0,111.2,13.11,26.12,112.8
"2010-08-14 01:20:00",69581,7.685,151.8,1.04,0.108,22.37,110.146,25.27,26.16,17.96,0,111.2,13.11,26.11,113.8
"2010-08-14 01:20:30",69582,7.913,153.3,1.243,0.135,22.33,110.1443,25.27,26.16,17.99,0,111.2,13.12,26.11,115.3
"2010-08-14 01:21:00",69583,7.877,153,1.301,0.201,22.35,110.1412,25.26,26.16,18.05,0,111.2,13.12,26.10,115.0
"2010-08-14 01:21:30",69584,8.21,153.8,1.316,0.181,22.37,110.1394,25.25,26.15,18.33,0,111.2,13.12,26.09,115.8
"2010-08-14 01:22:00",69585,7.976,156.3,0.69,0.097,22.43,110.1389,25.25,26.15,18.48,0,111.2,13.12,26.09,118.3
"2010-08-14 01:22:30",69586,7.766,155.9,0.502,0.087,22.4,110.1384,25.25,26.14,18.62,0,111.2,13.12,26.09,117.9
"2010-08-14 01:23:00",69587,7.652,156.1,0.455,0.088,22.38,110.1381,25.25,26.15,18.59,0,111.2,13.12,26.09,118.1
"2010-08-14 01:23:30",69588,7.579,155.5,1.102,0.067,22.39,110.1395,25.25,26.15,18.54,0,111.2,13.12,26.09,117.5
"2010-08-14 01:24:00",69589,7.626,154.3,1.139,0.142,22.37,110.1351,25.24,26.13,18.45,0,111.2,13.12,26.08,116.3
"2010-08-14 01:24:30",69590,7.901,155,1.773,0.263,22.37,110.1325,25.24,26.13,18.45,0,111.2,13.12,26.07,117.0
"2010-08-14 01:25:00",69591,7.868,152.1,1.837,0.206,22.35,110.1338,25.24,26.13,18.57,0,111.2,13.12,26.08,114.1
"2010-08-14 01:25:30",69592,7.685,150.7,2.02,0.238,22.32,110.1353,25.24,26.13,18.6,0,111.2,13.12,26.08,112.7
"2010-08-14 01:26:00",69593,7.821,150.3,0.487,0.257,22.33,110.1357,25.24,26.12,18.62,0,111.2,13.12,26.08,112.3
"2010-08-14 01:26:30",69594,7.942,151.7,0.615,0.08,22.39,110.1311,25.23,26.1,18.52,0,111.2,13.12,26.07,113.7
"2010-08-14 01:27:00",69595,8.01,151.8,0.813,0.095,22.39,110.1319,25.23,26.1,18.52,0,111.2,13.12,26.07,113.8
"2010-08-14 01:27:30",69596,7.928,152.2,0.776,0.114,22.39,110.1226,25.21,26.1,18.53,0,111.2,13.12,26.05,114.2
"2010-08-14 01:28:00",69597,8.17,154.5,1.735,0.156,22.41,110.1165,25.19,26.1,18.6,0,111.1,13.12,26.03,116.5
"2010-08-14 01:28:30",69598,8.35,157.1,1.343,0.224,22.44,110.1149,25.19,26.09,18.88,0,111.1,13.12,26.03,119.1
"2010-08-14 01:29:00",69599,8.45,155.5,0.879,0.13,22.43,110.1165,25.19,26.1,19.03,0,111.1,13.12,26.03,117.5
"2010-08-14 01:29:30",69600,8.34,155.9,1.081,0.3,22.5,110.115,25.19,26.09,19.09,0,111.1,13.12,26.03,117.9
"2010-08-14 01:30:00",69601,8.29,156.1,1.184,0.176,22.48,110.1159,25.19,26.07,19.15,0,111.1,13.12,26.03,118.1
"2010-08-14 01:30:30",69602,7.982,157.1,1.061,0.125,22.48,110.1151,25.19,26.09,19.23,0,111.1,13.11,26.03,119.1
"2010-08-14 01:31:00",69603,8,156.9,0.858,0.135,22.52,110.1145,25.19,26.09,19.22,0,111.1,13.11,26.03,118.9
"2010-08-14 01:31:30",69604,7.777,155.8,1.187,0.172,22.46,110.1092,25.18,26.09,19.22,0,111.1,13.11,26.01,117.8
"2010-08-14 01:32:00",69605,7.512,153.9,1.508,0.159,22.38,110.1078,25.17,26.07,19.31,0,111.1,13.11,26.01,115.9
"2010-08-14 01:32:30",69606,7.37,155.5,1.6,0.219,22.39,110.1078,25.17,26.07,19.48,0,111.1,13.11,26.01,117.5
"2010-08-14 01:33:00",69607,8.14,157.4,2.915,0.249,22.49,110.1033,25.16,26.06,19.74,0,111.1,13.11,26.00,119.4
"2010-08-14 01:33:30",69608,7.718,156.5,2.082,0.242,22.43,110.0946,25.14,26.04,19.56,0,111.1,13.11,25.98,118.5
"2010-08-14 01:34:00",69609,8.11,156.9,0.917,0.118,22.51,110.0834,25.11,26.04,19.65,0,111.1,13.11,25.95,118.9
"2010-08-14 01:34:30",69610,8.04,156.6,0.735,0.18,22.51,110.0764,25.09,26.02,19.44,0,111.1,13.11,25.93,118.6
"2010-08-14 01:35:00",69611,7.804,159.3,2.363,0.238,22.54,110.0741,25.08,26.01,19.48,0,111.1,13.11,25.92,121.3
"2010-08-14 01:35:30",69612,7.927,160.6,1.409,0.146,22.58,110.0741,25.08,26.01,20.23,0,111.1,13.11,25.92,122.6
"2010-08-14 01:36:00",69613,8.07,160.5,1.56,0.116,22.59,110.0741,25.08,26,20.62,0,111.1,13.12,25.92,122.5
"2010-08-14 01:36:30",69614,7.795,162.6,1.119,0.143,22.6,110.0741,25.08,26.01,20.64,0,111.1,13.12,25.92,124.6
"2010-08-14 01:37:00",69615,7.71,164.2,0.502,0.105,22.65,110.0741,25.08,25.99,20.62,0,111.1,13.12,25.92,126.2
"2010-08-14 01:37:30",69616,7.651,164.5,0.649,0.105,22.64,110.0741,25.08,26.01,20.79,0,111.1,13.12,25.92,126.5
"2010-08-14 01:38:00",69617,7.753,165.6,0.829,0.082,22.66,110.0741,25.08,26,21.03,0,111.1,13.12,25.92,127.6
"2010-08-14 01:38:30",69618,7.84,166.7,1.142,0.109,22.68,110.0741,25.08,25.98,21.17,0,111.1,13.12,25.92,128.7
"2010-08-14 01:39:00",69619,7.614,167.8,0.634,0.124,22.68,110.0741,25.08,25.97,21.21,0,111.1,13.12,25.92,129.8
"2010-08-14 01:39:30",69620,7.571,164.9,1.878,0.163,22.69,110.0719,25.08,25.97,21.34,0,111.1,13.12,25.92,126.9
"2010-08-14 01:40:00",69621,7.756,163.8,0.69,0.131,22.63,110.0609,25.05,25.96,21.34,0,111.1,13.12,25.89,125.8
"2010-08-14 01:40:30",69622,7.858,165.5,0.76,0.185,22.66,110.0505,25.02,25.97,21.37,0,111.1,13.12,25.86,127.5
"2010-08-14 01:41:00",69623,7.404,166.8,1.872,0.119,22.69,110.0446,25.01,25.95,21.51,0,111.1,13.12,25.85,128.8
"2010-08-14 01:41:30",69624,7.279,166.3,1.213,0.141,22.69,110.0407,25,25.94,21.53,0,111.1,13.12,25.84,128.3
"2010-08-14 01:42:00",69625,7.118,166.2,0.837,0.066,22.64,110.0404,25,25.93,21.52,0,111.1,13.12,25.84,128.2
"2010-08-14 01:42:30",69626,6.882,166.9,0.936,0.19,22.69,110.0404,25,25.92,21.58,0,111.1,13.12,25.84,128.9
"2010-08-14 01:43:00",69627,6.968,165.1,1.587,0.09,22.64,110.0407,25,25.91,21.58,0,111.1,13.12,25.84,127.1
"2010-08-14 01:43:30",69628,7.019,167.6,0.944,0.086,22.66,110.0385,24.99,25.9,21.69,0,111.1,13.12,25.83,129.6
"2010-08-14 01:44:00",69629,6.825,167.4,1.17,0.147,22.63,110.0276,24.97,25.89,21.68,0,111.1,13.12,25.80,129.4
"2010-08-14 01:44:30",69630,7.084,168.5,0.836,0.115,22.68,110.0113,24.92,25.89,21.73,0,111.1,13.13,25.76,130.5
"2010-08-14 01:45:00",69631,7.436,168.1,1.58,0.174,22.69,110.0092,24.92,25.87,21.83,0,111.1,13.13,25.76,130.1
"2010-08-14 01:45:30",69632,7.668,168.5,0.673,0.111,22.7,110.0129,24.93,25.86,21.89,0,111.1,13.13,25.77,130.5
"2010-08-14 01:46:00",69633,7.603,168.7,0.757,0.117,22.72,110.0151,24.93,25.86,21.93,0,111.1,13.13,25.77,130.7
"2010-08-14 01:46:30",69634,7.471,168.9,0.6,0.085,22.73,110.0194,24.94,25.84,21.97,0,111.1,13.13,25.78,130.9
"2010-08-14 01:47:00",69635,7.406,168,0.87,0.07,22.72,110.0189,24.94,25.84,22,0,111.1,13.13,25.78,130.0
"2010-08-14 01:47:30",69636,7.542,167.3,0.649,0.169,22.74,110.0175,24.94,25.82,22.05,0,111.1,13.13,25.78,129.3
"2010-08-14 01:48:00",69637,7.677,166.3,1.075,0.085,22.77,110.0088,24.92,25.83,22.14,0,111.1,13.13,25.76,128.3
"2010-08-14 01:48:30",69638,7.65,167.4,0.713,0.151,22.78,110.0046,24.91,25.81,22.1,0,111.1,13.13,25.75,129.4
"2010-08-14 01:49:00",69639,7.609,167.9,0.831,0.091,22.78,110.0005,24.9,25.8,22.16,0,111.1,13.12,25.73,129.9